JTD156 EKYT-LGSA

Flight info

Callsign JTD156
Flight time 3h 25m
Altitude 35000
Route TL DCT NEDIK DCT HDO DCT VLM DCT LANUX DCT STEIN DCT VEBAL DCT GUBOK DCT UZVEZ DCT RUDAR DCT POD/N0454F370 DCT RETRA DCT UNDER DCT ELBAK DCT DIMIS DCT IPTES UL604 TRL UL612 RUSOS
Aircraft B738/M-SDE2E3FGHIRWXY/LB1

Departure

Time 2026-05-08 09:19
Airport Aalborg Airport (EKYT)

Arrival

Time 2026-05-08 12:44
Airport Chania International Airport (LGSA)
Time Latitude Longitude Altitude Speed Heading
2026-05-08 08:51 57.08707 9.86975 18 ft 0 kts 55°
2026-05-08 09:09 57.08699 9.86955 18 ft 4 kts 56°
2026-05-08 09:09 57.08685 9.86914 19 ft 3 kts 55°
2026-05-08 09:10 57.08672 9.86884 19 ft 4 kts 27°
2026-05-08 09:10 57.08653 9.86885 18 ft 4 kts 316°
2026-05-08 09:10 57.08637 9.86913 18 ft 1 kts 315°
2026-05-08 09:13 57.08638 9.86912 18 ft 1 kts 315°
2026-05-08 09:13 57.08663 9.86867 19 ft 10 kts 318°
2026-05-08 09:13 57.08736 9.86752 19 ft 16 kts 321°
2026-05-08 09:14 57.08836 9.86606 18 ft 20 kts 321°
2026-05-08 09:14 57.08957 9.86429 18 ft 24 kts 321°
2026-05-08 09:14 57.09097 9.86232 18 ft 26 kts 322°
2026-05-08 09:14 57.09227 9.86050 18 ft 14 kts 323°
2026-05-08 09:15 57.09312 9.85939 18 ft 12 kts 340°
2026-05-08 09:15 57.09353 9.86042 18 ft 13 kts 82°
2026-05-08 09:15 57.09365 9.86218 18 ft 15 kts 83°
2026-05-08 09:15 57.09377 9.86422 18 ft 17 kts 83°
2026-05-08 09:16 57.09393 9.86652 18 ft 19 kts 82°
2026-05-08 09:16 57.09409 9.86906 18 ft 21 kts 83°
2026-05-08 09:16 57.09427 9.87182 18 ft 23 kts 83°
2026-05-08 09:16 57.09446 9.87477 18 ft 24 kts 83°
2026-05-08 09:17 57.09464 9.87676 18 ft 16 kts 63°
2026-05-08 09:17 57.09566 9.87736 18 ft 17 kts 350°
2026-05-08 09:17 57.09646 9.87629 20 ft 11 kts 298°
2026-05-08 09:17 57.09647 9.87579 18 ft 0 kts 263°
2026-05-08 09:18 57.09637 9.87418 18 ft 42 kts 263°
2026-05-08 09:18 57.09575 9.86460 18 ft 107 kts 263°
2026-05-08 09:18 57.09464 9.84752 26 ft 160 kts 262°
2026-05-08 09:19 57.09326 9.82610 492 ft 171 kts 263°
2026-05-08 09:19 57.09186 9.80431 1211 ft 174 kts 263°
2026-05-08 09:19 57.09051 9.78188 1812 ft 183 kts 263°
2026-05-08 09:19 57.08901 9.75720 2061 ft 208 kts 263°
2026-05-08 09:20 57.08731 9.72900 2251 ft 229 kts 263°
2026-05-08 09:20 57.08553 9.69972 2618 ft 238 kts 263°
2026-05-08 09:20 57.08360 9.66815 2875 ft 257 kts 263°
2026-05-08 09:20 57.08158 9.63509 3500 ft 262 kts 263°
2026-05-08 09:21 57.07953 9.60173 4265 ft 263 kts 263°
2026-05-08 09:21 57.07747 9.56812 4973 ft 265 kts 263°
2026-05-08 09:22 57.06275 9.36055 8961 ft 281 kts 240°
2026-05-08 09:23 57.04934 9.33510 9555 ft 281 kts 206°
2026-05-08 09:23 57.03054 9.32727 10169 ft 281 kts 174°
2026-05-08 09:23 57.01214 9.33919 10626 ft 291 kts 144°
2026-05-08 09:23 56.99791 9.36718 10799 ft 310 kts 129°
2026-05-08 09:24 56.98143 9.39432 10927 ft 329 kts 146°
2026-05-08 09:24 56.96158 9.41752 11103 ft 346 kts 148°
2026-05-08 09:24 56.94079 9.44085 11538 ft 354 kts 149°
2026-05-08 09:24 56.91965 9.46446 12136 ft 357 kts 149°
2026-05-08 09:25 56.89837 9.48835 12735 ft 360 kts 149°
2026-05-08 09:25 56.87697 9.51251 13338 ft 363 kts 148°
2026-05-08 09:25 56.85541 9.53697 13929 ft 366 kts 148°
2026-05-08 09:25 56.83367 9.56172 14499 ft 370 kts 148°
2026-05-08 09:26 56.81175 9.58671 15116 ft 373 kts 148°
2026-05-08 09:26 56.78964 9.61193 15720 ft 376 kts 148°
2026-05-08 09:26 56.76735 9.63734 16305 ft 380 kts 148°
2026-05-08 09:26 56.74487 9.66294 16859 ft 383 kts 148°
2026-05-08 09:27 56.72213 9.68880 17390 ft 387 kts 148°
2026-05-08 09:27 56.69920 9.71484 17920 ft 390 kts 148°
2026-05-08 09:27 56.67610 9.74105 18475 ft 393 kts 148°
2026-05-08 09:27 56.65277 9.76749 18988 ft 396 kts 148°
2026-05-08 09:28 56.62928 9.79407 19507 ft 399 kts 148°
2026-05-08 09:28 56.60563 9.82079 19991 ft 402 kts 148°
2026-05-08 09:28 56.58208 9.84735 20475 ft 405 kts 148°
2026-05-08 09:28 56.55803 9.87445 20949 ft 408 kts 148°
2026-05-08 09:29 56.53350 9.90204 21411 ft 411 kts 148°
2026-05-08 09:29 56.50949 9.92900 21869 ft 413 kts 148°
2026-05-08 09:29 56.48496 9.95650 22301 ft 416 kts 148°
2026-05-08 09:29 56.46027 9.98414 22726 ft 419 kts 148°
2026-05-08 09:30 56.43536 10.01196 23139 ft 421 kts 148°
2026-05-08 09:30 56.41035 10.03987 23534 ft 424 kts 148°
2026-05-08 09:30 56.38513 10.06797 23924 ft 427 kts 148°
2026-05-08 09:30 56.35979 10.09615 24292 ft 429 kts 148°
2026-05-08 09:31 56.33430 10.12446 24678 ft 431 kts 148°
2026-05-08 09:31 56.30869 10.15284 25071 ft 433 kts 148°
2026-05-08 09:31 56.28294 10.18135 25442 ft 435 kts 148°
2026-05-08 09:31 56.25715 10.20986 25792 ft 437 kts 148°
2026-05-08 09:32 56.23116 10.23854 26139 ft 439 kts 148°
2026-05-08 09:32 56.20510 10.26724 26470 ft 441 kts 148°
2026-05-08 09:32 56.17892 10.29604 26787 ft 442 kts 148°
2026-05-08 09:32 56.15261 10.32493 27089 ft 444 kts 148°
2026-05-08 09:33 56.12620 10.35389 27396 ft 446 kts 148°
2026-05-08 09:33 56.09959 10.38302 27701 ft 448 kts 148°
2026-05-08 09:33 56.07297 10.41210 27992 ft 449 kts 148°
2026-05-08 09:33 56.04626 10.44124 28281 ft 451 kts 148°
2026-05-08 09:34 56.01944 10.47045 28548 ft 452 kts 148°
2026-05-08 09:34 55.99244 10.49980 28817 ft 454 kts 148°
2026-05-08 09:34 55.96636 10.52811 29094 ft 455 kts 148°
2026-05-08 09:34 55.93968 10.55704 29419 ft 455 kts 148°
2026-05-08 09:35 55.91266 10.58627 29800 ft 453 kts 148°
2026-05-08 09:35 55.88579 10.61530 30177 ft 451 kts 148°
2026-05-08 09:35 55.85899 10.64421 30507 ft 450 kts 148°
2026-05-08 09:35 55.83219 10.67307 30808 ft 450 kts 148°
2026-05-08 09:36 55.80537 10.70190 31105 ft 450 kts 148°
2026-05-08 09:36 55.77861 10.73062 31430 ft 449 kts 148°
2026-05-08 09:36 55.75187 10.75927 31721 ft 448 kts 148°
2026-05-08 09:36 55.72517 10.78782 31998 ft 448 kts 148°
2026-05-08 09:37 55.69848 10.81632 32251 ft 448 kts 148°
2026-05-08 09:37 55.67180 10.84476 32524 ft 447 kts 148°
2026-05-08 09:37 55.64518 10.87311 32816 ft 446 kts 148°
2026-05-08 09:37 55.61857 10.90140 33080 ft 446 kts 148°
2026-05-08 09:38 55.59198 10.92963 33299 ft 446 kts 148°
2026-05-08 09:38 55.56531 10.95788 33544 ft 446 kts 148°
2026-05-08 09:38 55.53876 10.98597 33820 ft 445 kts 149°
2026-05-08 09:38 55.51219 11.01404 34063 ft 445 kts 149°
2026-05-08 09:39 55.48565 11.04204 34277 ft 445 kts 149°
2026-05-08 09:39 55.45908 11.07001 34472 ft 445 kts 149°
2026-05-08 09:39 55.43241 11.09805 34645 ft 446 kts 149°
2026-05-08 09:39 55.40574 11.12604 34817 ft 447 kts 149°
2026-05-08 09:40 55.37903 11.15402 35013 ft 447 kts 149°
2026-05-08 09:40 55.35233 11.18194 35213 ft 447 kts 149°
2026-05-08 09:40 55.32556 11.20990 35265 ft 450 kts 149°
2026-05-08 09:41 55.27159 11.26614 35267 ft 450 kts 149°
2026-05-08 09:41 55.21788 11.32193 35255 ft 447 kts 149°
2026-05-08 09:42 55.16453 11.37716 35261 ft 445 kts 149°
2026-05-08 09:42 55.11134 11.43204 35264 ft 443 kts 149°
2026-05-08 09:43 55.05828 11.48666 35261 ft 443 kts 149°
2026-05-08 09:43 55.00519 11.54111 35274 ft 444 kts 149°
2026-05-08 09:44 54.95185 11.59565 35272 ft 446 kts 150°
2026-05-08 09:44 54.89820 11.65034 35280 ft 448 kts 150°
2026-05-08 09:45 54.84417 11.70524 35272 ft 451 kts 150°
2026-05-08 09:45 54.78975 11.76035 35255 ft 454 kts 150°
2026-05-08 09:46 54.73512 11.81553 35254 ft 455 kts 150°
2026-05-08 09:46 54.68025 11.87075 35251 ft 457 kts 150°
2026-05-08 09:47 54.62565 11.92558 35246 ft 457 kts 150°
2026-05-08 09:47 54.57063 11.98064 35243 ft 457 kts 150°
2026-05-08 09:48 54.51562 12.03551 35236 ft 456 kts 150°
2026-05-08 09:48 54.45955 12.08633 35242 ft 455 kts 157°
2026-05-08 09:49 54.40105 12.12720 35230 ft 454 kts 159°
2026-05-08 09:49 54.35191 12.16045 35228 ft 453 kts 159°
2026-05-08 09:50 54.29345 12.20060 35230 ft 452 kts 158°
2026-05-08 09:50 54.23549 12.24092 35226 ft 452 kts 158°
2026-05-08 09:51 54.17721 12.28157 35220 ft 453 kts 158°
2026-05-08 09:51 54.11885 12.32217 35223 ft 453 kts 158°
2026-05-08 09:52 54.06047 12.36264 35212 ft 453 kts 158°
2026-05-08 09:52 54.00203 12.40301 35215 ft 454 kts 158°
2026-05-08 09:53 53.94350 12.44334 35209 ft 454 kts 159°
2026-05-08 09:53 53.88479 12.48365 35214 ft 455 kts 159°
2026-05-08 09:54 53.82610 12.52386 35210 ft 455 kts 159°
2026-05-08 09:54 53.76730 12.56400 35210 ft 456 kts 159°
2026-05-08 09:55 53.70850 12.60399 35212 ft 456 kts 159°
2026-05-08 09:55 53.64961 12.64392 35211 ft 456 kts 159°
2026-05-08 09:56 53.59073 12.68374 35211 ft 456 kts 159°
2026-05-08 09:56 53.53179 12.72350 35214 ft 456 kts 159°
2026-05-08 09:57 53.44336 12.78292 35212 ft 456 kts 159°
2026-05-08 09:57 53.38444 12.82238 35212 ft 456 kts 159°
2026-05-08 09:58 53.32555 12.86168 35224 ft 455 kts 159°
2026-05-08 09:58 53.26659 12.90087 35218 ft 455 kts 159°
2026-05-08 09:59 53.20773 12.93992 35222 ft 455 kts 159°
2026-05-08 09:59 53.14887 12.97886 35222 ft 455 kts 159°
2026-05-08 10:00 53.08997 13.01770 35220 ft 455 kts 159°
2026-05-08 10:00 53.03100 13.05647 35212 ft 456 kts 159°
2026-05-08 10:01 52.97204 13.09512 35213 ft 456 kts 159°
2026-05-08 10:01 52.91339 13.13346 35215 ft 456 kts 159°
2026-05-08 10:02 52.85436 13.17192 35212 ft 456 kts 159°
2026-05-08 10:02 52.79526 13.21034 35214 ft 457 kts 159°
2026-05-08 10:03 52.73610 13.24867 35210 ft 457 kts 159°
2026-05-08 10:03 52.67687 13.28692 35216 ft 457 kts 159°
2026-05-08 10:04 52.61763 13.32509 35211 ft 457 kts 159°
2026-05-08 10:04 52.55839 13.36315 35213 ft 457 kts 160°
2026-05-08 10:05 52.49898 13.40120 35211 ft 458 kts 160°
2026-05-08 10:05 52.43964 13.43910 35213 ft 458 kts 160°
2026-05-08 10:06 52.38024 13.47691 35211 ft 458 kts 160°
2026-05-08 10:06 52.32079 13.51464 35211 ft 458 kts 160°
2026-05-08 10:07 52.26172 13.55204 35213 ft 458 kts 160°
2026-05-08 10:07 52.20224 13.58959 35212 ft 458 kts 160°
2026-05-08 10:08 52.14270 13.62707 35210 ft 458 kts 160°
2026-05-08 10:08 52.08318 13.66444 35203 ft 458 kts 160°
2026-05-08 10:09 52.02368 13.70168 35203 ft 458 kts 160°
2026-05-08 10:09 51.96418 13.73880 35195 ft 458 kts 160°
2026-05-08 10:10 51.90463 13.77585 35194 ft 459 kts 160°
2026-05-08 10:10 51.84501 13.81284 35192 ft 459 kts 160°
2026-05-08 10:11 51.78543 13.84972 35193 ft 458 kts 160°
2026-05-08 10:11 51.72586 13.88645 35185 ft 458 kts 160°
2026-05-08 10:12 51.66623 13.92316 35176 ft 458 kts 160°
2026-05-08 10:12 51.60669 13.95970 35177 ft 458 kts 160°
2026-05-08 10:13 51.54708 13.99617 35169 ft 459 kts 160°
2026-05-08 10:13 51.48744 14.03254 35164 ft 459 kts 160°
2026-05-08 10:14 51.42779 14.06882 35167 ft 458 kts 160°
2026-05-08 10:14 51.36814 14.10500 35165 ft 458 kts 160°
2026-05-08 10:15 51.30890 14.14085 35167 ft 458 kts 160°
2026-05-08 10:15 51.24922 14.17683 35157 ft 458 kts 161°
2026-05-08 10:16 51.18956 14.21275 35156 ft 458 kts 161°
2026-05-08 10:16 51.13515 14.24541 35158 ft 458 kts 161°
2026-05-08 10:17 51.07957 14.27867 35155 ft 458 kts 161°
2026-05-08 10:17 51.01988 14.31430 35160 ft 458 kts 161°
2026-05-08 10:18 50.96024 14.34984 35155 ft 458 kts 161°
2026-05-08 10:18 50.90059 14.38518 35146 ft 458 kts 161°
2026-05-08 10:19 50.84086 14.42006 35152 ft 457 kts 161°
2026-05-08 10:20 50.75129 14.47212 35147 ft 457 kts 161°
2026-05-08 10:20 50.69161 14.50675 35136 ft 457 kts 161°
2026-05-08 10:21 50.63190 14.54132 35138 ft 457 kts 161°
2026-05-08 10:21 50.57220 14.57580 35136 ft 457 kts 161°
2026-05-08 10:22 50.51252 14.61018 35141 ft 457 kts 161°
2026-05-08 10:22 50.45265 14.64457 35139 ft 458 kts 162°
2026-05-08 10:23 50.39281 14.67885 35138 ft 458 kts 162°
2026-05-08 10:23 50.33298 14.71303 35134 ft 458 kts 162°
2026-05-08 10:24 50.27306 14.74718 35126 ft 458 kts 162°
2026-05-08 10:24 50.21321 14.78119 35130 ft 458 kts 162°
2026-05-08 10:25 50.15328 14.81515 35129 ft 458 kts 162°
2026-05-08 10:25 50.09338 14.84902 35129 ft 458 kts 162°
2026-05-08 10:26 50.03350 14.88276 35128 ft 457 kts 162°
2026-05-08 10:26 49.97367 14.91641 35130 ft 457 kts 162°
2026-05-08 10:27 49.91376 14.95004 35126 ft 458 kts 162°
2026-05-08 10:27 49.85387 14.98355 35129 ft 458 kts 162°
2026-05-08 10:28 49.79395 15.01695 35129 ft 458 kts 162°
2026-05-08 10:28 49.73444 15.05008 35127 ft 458 kts 162°
2026-05-08 10:29 49.67498 15.08533 35130 ft 458 kts 159°
2026-05-08 10:29 49.61667 15.12538 35130 ft 459 kts 158°
2026-05-08 10:30 49.55847 15.16594 35119 ft 459 kts 158°
2026-05-08 10:30 49.50013 15.20597 35122 ft 459 kts 158°
2026-05-08 10:31 49.44167 15.24566 35118 ft 459 kts 159°
2026-05-08 10:31 49.38321 15.28515 35120 ft 459 kts 159°
2026-05-08 10:32 49.32472 15.32458 35118 ft 459 kts 159°
2026-05-08 10:32 49.26624 15.36392 35112 ft 459 kts 159°
2026-05-08 10:33 49.21761 15.39656 35109 ft 459 kts 159°
2026-05-08 10:33 49.15901 15.43580 35112 ft 459 kts 159°
2026-05-08 10:34 49.10051 15.47487 35105 ft 459 kts 159°
2026-05-08 10:34 49.04200 15.51385 35102 ft 459 kts 159°
2026-05-08 10:35 48.98342 15.55279 35104 ft 459 kts 159°
2026-05-08 10:35 48.92496 15.59154 35099 ft 458 kts 159°
2026-05-08 10:36 48.86658 15.63038 35102 ft 458 kts 159°
2026-05-08 10:36 48.80858 15.67052 35104 ft 458 kts 158°
2026-05-08 10:37 48.75061 15.71099 35101 ft 459 kts 158°
2026-05-08 10:37 48.69252 15.75128 35100 ft 459 kts 158°
2026-05-08 10:38 48.63427 15.79144 35101 ft 460 kts 158°
2026-05-08 10:38 48.57599 15.83146 35103 ft 460 kts 158°
2026-05-08 10:39 48.51766 15.87141 35101 ft 460 kts 159°
2026-05-08 10:39 48.45936 15.91125 35103 ft 460 kts 159°
2026-05-08 10:40 48.40096 15.95105 35102 ft 460 kts 159°
2026-05-08 10:40 48.34300 15.99049 35100 ft 460 kts 159°
2026-05-08 10:41 48.28425 16.03035 35102 ft 460 kts 159°
2026-05-08 10:41 48.22591 16.06981 35104 ft 460 kts 159°
2026-05-08 10:42 48.16793 16.10893 35099 ft 460 kts 159°
2026-05-08 10:42 48.10948 16.14826 35099 ft 460 kts 159°
2026-05-08 10:43 48.05110 16.18749 35104 ft 460 kts 159°
2026-05-08 10:43 47.99266 16.22666 35102 ft 460 kts 159°
2026-05-08 10:44 47.93420 16.26574 35099 ft 460 kts 159°
2026-05-08 10:44 47.87580 16.30463 35103 ft 460 kts 159°
2026-05-08 10:45 47.81736 16.34349 35101 ft 460 kts 159°
2026-05-08 10:45 47.75889 16.38227 35100 ft 460 kts 159°
2026-05-08 10:46 47.70050 16.42091 35101 ft 460 kts 159°
2026-05-08 10:46 47.64206 16.45947 35102 ft 459 kts 159°
2026-05-08 10:47 47.58373 16.49789 35099 ft 459 kts 159°
2026-05-08 10:47 47.52531 16.53627 35096 ft 459 kts 159°
2026-05-08 10:48 47.46695 16.57451 35098 ft 459 kts 159°
2026-05-08 10:48 47.40826 16.61135 35084 ft 457 kts 163°
2026-05-08 10:49 47.34860 16.64130 35097 ft 455 kts 165°
2026-05-08 10:49 47.28786 16.67032 35080 ft 456 kts 165°
2026-05-08 10:50 47.22805 16.69936 35081 ft 455 kts 165°
2026-05-08 10:50 47.16802 16.72893 35090 ft 455 kts 165°
2026-05-08 10:51 47.10803 16.75855 35078 ft 455 kts 164°
2026-05-08 10:51 47.04799 16.78812 35082 ft 454 kts 165°
2026-05-08 10:52 46.98800 16.81755 35086 ft 454 kts 165°
2026-05-08 10:52 46.92808 16.84688 35077 ft 454 kts 165°
2026-05-08 10:53 46.86813 16.87617 35088 ft 454 kts 165°
2026-05-08 10:53 46.80813 16.90541 35075 ft 455 kts 165°
2026-05-08 10:54 46.74813 16.93459 35079 ft 454 kts 165°
2026-05-08 10:54 46.68811 16.96370 35078 ft 454 kts 165°
2026-05-08 10:55 46.62813 16.99273 35073 ft 454 kts 165°
2026-05-08 10:55 46.56822 17.02165 35073 ft 454 kts 165°
2026-05-08 10:56 46.50818 17.05058 35071 ft 454 kts 165°
2026-05-08 10:56 46.44832 17.07935 35073 ft 453 kts 165°
2026-05-08 10:57 46.38882 17.10789 35078 ft 453 kts 165°
2026-05-08 10:57 46.29908 17.15079 35070 ft 453 kts 165°
2026-05-08 10:58 46.23924 17.17932 35081 ft 453 kts 165°
2026-05-08 10:58 46.17934 17.20782 35071 ft 453 kts 165°
2026-05-08 10:59 46.11944 17.23624 35075 ft 453 kts 165°
2026-05-08 10:59 46.05954 17.26461 35070 ft 453 kts 165°
2026-05-08 11:00 45.99965 17.29290 35072 ft 453 kts 165°
2026-05-08 11:00 45.94068 17.32538 35079 ft 454 kts 160°
2026-05-08 11:01 45.88270 17.36152 35074 ft 454 kts 159°
2026-05-08 11:01 45.82470 17.39751 35073 ft 454 kts 159°
2026-05-08 11:02 45.73756 17.45040 35072 ft 453 kts 160°
2026-05-08 11:03 45.67941 17.48538 35074 ft 453 kts 160°
2026-05-08 11:03 45.62126 17.52026 35074 ft 452 kts 160°
2026-05-08 11:04 45.56321 17.55501 35071 ft 452 kts 160°
2026-05-08 11:04 45.50520 17.58966 35082 ft 452 kts 160°
2026-05-08 11:05 45.44710 17.62430 35076 ft 453 kts 160°
2026-05-08 11:05 45.38932 17.65868 35071 ft 453 kts 160°
2026-05-08 11:06 45.33114 17.69322 35077 ft 453 kts 160°
2026-05-08 11:06 45.27293 17.72770 35079 ft 453 kts 160°
2026-05-08 11:07 45.21470 17.76212 35077 ft 453 kts 160°
2026-05-08 11:07 45.15656 17.79639 35077 ft 453 kts 160°
2026-05-08 11:08 45.09833 17.83068 35071 ft 453 kts 160°
2026-05-08 11:08 45.04016 17.86456 35074 ft 452 kts 162°
2026-05-08 11:09 44.98072 17.89324 35077 ft 450 kts 165°
2026-05-08 11:09 44.92101 17.92009 35069 ft 450 kts 165°
2026-05-08 11:10 44.86129 17.94722 35078 ft 450 kts 164°
2026-05-08 11:10 44.80169 17.97463 35072 ft 450 kts 164°
2026-05-08 11:11 44.74260 18.00187 35072 ft 450 kts 164°
2026-05-08 11:11 44.68323 18.02918 35071 ft 449 kts 164°
2026-05-08 11:12 44.62385 18.05643 35071 ft 449 kts 164°
2026-05-08 11:12 44.56446 18.08360 35077 ft 448 kts 164°
2026-05-08 11:13 44.50524 18.11066 35074 ft 447 kts 164°
2026-05-08 11:13 44.44604 18.13765 35075 ft 447 kts 164°
2026-05-08 11:14 44.38690 18.16456 35074 ft 446 kts 164°
2026-05-08 11:14 44.32786 18.19137 35072 ft 446 kts 164°
2026-05-08 11:15 44.26875 18.21798 35073 ft 446 kts 165°
2026-05-08 11:15 44.20951 18.24409 35057 ft 447 kts 165°
2026-05-08 11:16 44.15008 18.27020 35055 ft 448 kts 165°
2026-05-08 11:16 44.10067 18.29191 35061 ft 448 kts 165°
2026-05-08 11:17 44.04117 18.31804 35068 ft 448 kts 165°
2026-05-08 11:17 43.98166 18.34414 35070 ft 448 kts 165°
2026-05-08 11:18 43.92212 18.37018 35074 ft 448 kts 165°
2026-05-08 11:18 43.86257 18.39618 35073 ft 448 kts 165°
2026-05-08 11:19 43.80307 18.42211 35085 ft 448 kts 165°
2026-05-08 11:19 43.74359 18.44797 35070 ft 448 kts 165°
2026-05-08 11:20 43.68414 18.47377 35076 ft 448 kts 165°
2026-05-08 11:20 43.62509 18.50189 35064 ft 450 kts 159°
2026-05-08 11:21 43.56806 18.53732 35067 ft 450 kts 157°
2026-05-08 11:21 43.51126 18.57359 35062 ft 450 kts 157°
2026-05-08 11:22 43.45424 18.60928 35049 ft 450 kts 158°
2026-05-08 11:22 43.39710 18.64455 35047 ft 450 kts 158°
2026-05-08 11:23 43.33995 18.67962 35041 ft 450 kts 158°
2026-05-08 11:23 43.28280 18.71461 35037 ft 450 kts 158°
2026-05-08 11:24 43.22565 18.74955 35041 ft 450 kts 158°
2026-05-08 11:24 43.16852 18.78441 35048 ft 449 kts 158°
2026-05-08 11:25 43.11139 18.81922 35042 ft 449 kts 158°
2026-05-08 11:25 43.05422 18.85398 35032 ft 449 kts 158°
2026-05-08 11:26 42.99705 18.88866 35028 ft 450 kts 158°
2026-05-08 11:26 42.93986 18.92328 35029 ft 450 kts 158°
2026-05-08 11:27 42.88284 18.95772 35015 ft 450 kts 158°
2026-05-08 11:27 42.82552 18.99225 35019 ft 450 kts 158°
2026-05-08 11:28 42.76819 19.02677 35019 ft 450 kts 158°
2026-05-08 11:28 42.71089 19.06119 35013 ft 450 kts 158°
2026-05-08 11:29 42.65352 19.09555 35011 ft 451 kts 158°
2026-05-08 11:29 42.59609 19.12990 35027 ft 453 kts 158°
2026-05-08 11:29 42.56712 19.14720 35195 ft 454 kts 158°
2026-05-08 11:30 42.53824 19.16442 35477 ft 453 kts 158°
2026-05-08 11:30 42.50946 19.18155 35765 ft 451 kts 158°
2026-05-08 11:30 42.48077 19.19865 36033 ft 450 kts 158°
2026-05-08 11:30 42.45212 19.21573 36240 ft 450 kts 158°
2026-05-08 11:31 42.42350 19.23275 36396 ft 451 kts 158°
2026-05-08 11:31 42.39473 19.24982 36586 ft 451 kts 158°
2026-05-08 11:31 42.36587 19.26607 36841 ft 448 kts 161°
2026-05-08 11:31 42.33681 19.28086 37042 ft 447 kts 162°
2026-05-08 11:32 42.30753 19.29522 37016 ft 447 kts 162°
2026-05-08 11:32 42.24955 19.32404 37007 ft 439 kts 162°
2026-05-08 11:33 42.19270 19.35339 37022 ft 437 kts 160°
2026-05-08 11:33 42.13625 19.38391 37022 ft 437 kts 160°
2026-05-08 11:34 42.07977 19.41449 37020 ft 437 kts 160°
2026-05-08 11:34 42.02320 19.44490 37026 ft 438 kts 160°
2026-05-08 11:35 41.96649 19.47524 37016 ft 439 kts 161°
2026-05-08 11:35 41.90961 19.50560 37015 ft 440 kts 161°
2026-05-08 11:36 41.85267 19.53592 37006 ft 441 kts 161°
2026-05-08 11:36 41.79554 19.56627 37014 ft 442 kts 161°
2026-05-08 11:37 41.73837 19.59659 37009 ft 442 kts 161°
2026-05-08 11:37 41.68114 19.62688 37004 ft 443 kts 161°
2026-05-08 11:38 41.62381 19.65718 36999 ft 443 kts 161°
2026-05-08 11:38 41.56647 19.68743 36998 ft 443 kts 161°
2026-05-08 11:39 41.50913 19.71763 36999 ft 442 kts 161°
2026-05-08 11:39 41.45183 19.74774 37001 ft 442 kts 161°
2026-05-08 11:40 41.39456 19.77777 36993 ft 442 kts 161°
2026-05-08 11:40 41.33729 19.80775 36995 ft 442 kts 161°
2026-05-08 11:41 41.28010 19.83764 36990 ft 442 kts 161°
2026-05-08 11:41 41.22294 19.86745 36996 ft 441 kts 161°
2026-05-08 11:42 41.16577 19.89721 37000 ft 441 kts 161°
2026-05-08 11:42 41.10893 19.92676 37000 ft 441 kts 161°
2026-05-08 11:43 41.05201 19.95749 37004 ft 443 kts 157°
2026-05-08 11:43 40.99682 19.99373 37014 ft 443 kts 156°
2026-05-08 11:44 40.94174 20.03035 37040 ft 443 kts 156°
2026-05-08 11:44 40.88647 20.06641 37032 ft 443 kts 157°
2026-05-08 11:45 40.83126 20.10241 37046 ft 443 kts 156°
2026-05-08 11:45 40.77600 20.13871 37043 ft 443 kts 157°
2026-05-08 11:46 40.72078 20.17498 37046 ft 444 kts 157°
2026-05-08 11:46 40.66546 20.21121 37051 ft 444 kts 157°
2026-05-08 11:47 40.61008 20.24740 37050 ft 444 kts 157°
2026-05-08 11:47 40.55465 20.28356 37053 ft 444 kts 157°
2026-05-08 11:48 40.49925 20.31966 37054 ft 445 kts 157°
2026-05-08 11:48 40.44364 20.35578 37055 ft 446 kts 157°
2026-05-08 11:49 40.38788 20.39194 37058 ft 447 kts 157°
2026-05-08 11:49 40.33203 20.42811 37046 ft 448 kts 157°
2026-05-08 11:50 40.27612 20.46425 37045 ft 448 kts 157°
2026-05-08 11:50 40.22026 20.50029 37051 ft 447 kts 157°
2026-05-08 11:51 40.16478 20.53602 37057 ft 447 kts 157°
2026-05-08 11:51 40.10894 20.57192 37050 ft 447 kts 157°
2026-05-08 11:52 40.05318 20.60788 37053 ft 447 kts 156°
2026-05-08 11:52 39.99788 20.64487 37052 ft 445 kts 156°
2026-05-08 11:53 39.94292 20.68191 37064 ft 445 kts 156°
2026-05-08 11:53 39.88792 20.71878 37069 ft 444 kts 156°
2026-05-08 11:54 39.83286 20.75550 37072 ft 445 kts 156°
2026-05-08 11:54 39.77780 20.79213 37067 ft 445 kts 157°
2026-05-08 11:55 39.72264 20.82874 37077 ft 446 kts 157°
2026-05-08 11:55 39.66730 20.86544 37070 ft 447 kts 157°
2026-05-08 11:56 39.61186 20.90213 37075 ft 447 kts 157°
2026-05-08 11:56 39.55636 20.93880 37077 ft 448 kts 157°
2026-05-08 11:57 39.50076 20.97546 37070 ft 448 kts 157°
2026-05-08 11:57 39.44515 21.01207 37075 ft 449 kts 157°
2026-05-08 11:58 39.39886 21.04249 37080 ft 449 kts 157°
2026-05-08 11:58 39.34303 21.07911 37071 ft 450 kts 157°
2026-05-08 11:59 39.25919 21.13400 37066 ft 450 kts 157°
2026-05-08 11:59 39.20333 21.17049 37063 ft 450 kts 157°
2026-05-08 12:00 39.14736 21.20698 37056 ft 450 kts 157°
2026-05-08 12:00 39.09150 21.24333 37053 ft 450 kts 157°
2026-05-08 12:01 39.03556 21.27969 37048 ft 449 kts 158°
2026-05-08 12:01 38.97981 21.31584 37045 ft 448 kts 158°
2026-05-08 12:02 38.92415 21.35186 37031 ft 448 kts 158°
2026-05-08 12:02 38.86849 21.38782 37048 ft 448 kts 158°
2026-05-08 12:03 38.81287 21.42371 37026 ft 447 kts 158°
2026-05-08 12:03 38.75727 21.45953 37039 ft 447 kts 158°
2026-05-08 12:04 38.70167 21.49531 37053 ft 448 kts 158°
2026-05-08 12:04 38.64606 21.53200 37048 ft 451 kts 157°
2026-05-08 12:05 38.59022 21.56916 37033 ft 453 kts 157°
2026-05-08 12:05 38.53425 21.60631 37022 ft 454 kts 157°
2026-05-08 12:06 38.47810 21.64338 37032 ft 455 kts 157°
2026-05-08 12:06 38.42173 21.68051 37020 ft 456 kts 157°
2026-05-08 12:07 38.36537 21.71758 37039 ft 456 kts 157°
2026-05-08 12:07 38.30888 21.75467 37022 ft 456 kts 157°
2026-05-08 12:08 38.25285 21.79140 37032 ft 456 kts 157°
2026-05-08 12:08 38.19637 21.82832 37032 ft 457 kts 157°
2026-05-08 12:09 38.13985 21.86523 37027 ft 457 kts 158°
2026-05-08 12:09 38.08334 21.90206 37017 ft 456 kts 158°
2026-05-08 12:10 38.02693 21.93879 37024 ft 455 kts 158°
2026-05-08 12:10 37.97065 21.97535 37024 ft 454 kts 158°
2026-05-08 12:11 37.91450 22.01176 37043 ft 453 kts 158°
2026-05-08 12:11 37.85838 22.04807 37039 ft 452 kts 158°
2026-05-08 12:12 37.80233 22.08430 37054 ft 452 kts 158°
2026-05-08 12:12 37.74627 22.12047 37070 ft 452 kts 158°
2026-05-08 12:13 37.69011 22.15663 37070 ft 453 kts 158°
2026-05-08 12:13 37.63400 22.19271 37088 ft 453 kts 158°
2026-05-08 12:14 37.57771 22.22885 37090 ft 454 kts 158°
2026-05-08 12:14 37.52141 22.26494 37094 ft 454 kts 158°
2026-05-08 12:15 37.46498 22.30104 37108 ft 455 kts 157°
2026-05-08 12:15 37.41035 22.34187 37093 ft 462 kts 144°
2026-05-08 12:16 37.36674 22.40190 37110 ft 469 kts 129°
2026-05-08 12:16 37.32920 22.46854 37104 ft 471 kts 128°
2026-05-08 12:17 37.29136 22.53570 37101 ft 471 kts 128°
2026-05-08 12:17 37.25309 22.60256 37104 ft 471 kts 129°
2026-05-08 12:18 37.21470 22.66905 37109 ft 470 kts 129°
2026-05-08 12:18 37.17630 22.73536 37113 ft 469 kts 129°
2026-05-08 12:19 37.13789 22.80160 37114 ft 469 kts 129°
2026-05-08 12:19 37.11860 22.83480 36710 ft 476 kts 129°
2026-05-08 12:19 37.09914 22.86827 36235 ft 473 kts 129°
2026-05-08 12:20 37.07979 22.90155 35647 ft 473 kts 129°
2026-05-08 12:20 37.06040 22.93486 35031 ft 474 kts 129°
2026-05-08 12:20 37.04091 22.96829 34398 ft 474 kts 129°
2026-05-08 12:20 37.02146 23.00164 33758 ft 475 kts 129°
2026-05-08 12:21 37.00196 23.03504 33131 ft 475 kts 129°
2026-05-08 12:21 36.98251 23.06832 32661 ft 472 kts 129°
2026-05-08 12:21 36.96323 23.10129 32198 ft 468 kts 129°
2026-05-08 12:21 36.94407 23.13403 31751 ft 465 kts 129°
2026-05-08 12:22 36.92525 23.16614 31301 ft 462 kts 129°
2026-05-08 12:22 36.90632 23.19839 30853 ft 459 kts 129°
2026-05-08 12:22 36.88750 23.23044 30412 ft 455 kts 129°
2026-05-08 12:22 36.86881 23.26224 29969 ft 452 kts 129°
2026-05-08 12:23 36.85029 23.29371 29524 ft 448 kts 129°
2026-05-08 12:23 36.83190 23.32493 29074 ft 445 kts 129°
2026-05-08 12:23 36.81363 23.35592 28628 ft 441 kts 129°
2026-05-08 12:23 36.79548 23.38662 28180 ft 438 kts 129°
2026-05-08 12:24 36.77739 23.41711 27737 ft 435 kts 129°
2026-05-08 12:24 36.75946 23.44729 27298 ft 432 kts 129°
2026-05-08 12:24 36.74164 23.47724 26863 ft 428 kts 129°
2026-05-08 12:24 36.72395 23.50697 26388 ft 426 kts 129°
2026-05-08 12:25 36.70636 23.53651 26001 ft 423 kts 129°
2026-05-08 12:25 36.68887 23.56586 25557 ft 420 kts 129°
2026-05-08 12:25 36.67146 23.59506 24940 ft 422 kts 129°
2026-05-08 12:25 36.65387 23.62452 24283 ft 425 kts 129°
2026-05-08 12:26 36.63616 23.65396 23799 ft 422 kts 131°
2026-05-08 12:26 36.61573 23.67970 23388 ft 414 kts 143°
2026-05-08 12:26 36.59235 23.70026 22723 ft 412 kts 152°
2026-05-08 12:26 36.56715 23.71832 21698 ft 423 kts 153°
2026-05-08 12:27 36.54138 23.73636 20986 ft 426 kts 153°
2026-05-08 12:27 36.51562 23.75437 20482 ft 422 kts 153°
2026-05-08 12:27 36.49023 23.77223 20029 ft 417 kts 153°
2026-05-08 12:27 36.46514 23.78998 19529 ft 414 kts 153°
2026-05-08 12:28 36.44053 23.80746 18991 ft 411 kts 153°
2026-05-08 12:28 36.41545 23.82531 18444 ft 409 kts 152°
2026-05-08 12:28 36.39117 23.84262 17943 ft 406 kts 152°
2026-05-08 12:28 36.36675 23.86004 17442 ft 403 kts 152°
2026-05-08 12:29 36.34252 23.87732 16948 ft 400 kts 152°
2026-05-08 12:29 36.31851 23.89442 16512 ft 396 kts 152°
2026-05-08 12:29 36.29475 23.91133 16028 ft 393 kts 152°
2026-05-08 12:29 36.27113 23.92813 15540 ft 389 kts 152°
2026-05-08 12:30 36.24774 23.94475 15077 ft 386 kts 153°
2026-05-08 12:30 36.22456 23.96121 14630 ft 382 kts 153°
2026-05-08 12:30 36.20158 23.97752 14165 ft 379 kts 153°
2026-05-08 12:30 36.17879 23.99369 13787 ft 374 kts 153°
2026-05-08 12:31 36.15646 24.00951 13469 ft 367 kts 153°
2026-05-08 12:31 36.13449 24.02506 13139 ft 361 kts 153°
2026-05-08 12:31 36.11283 24.04039 12810 ft 355 kts 153°
2026-05-08 12:31 36.09177 24.05530 12472 ft 344 kts 153°
2026-05-08 12:32 36.07127 24.06980 12115 ft 334 kts 153°
2026-05-08 12:32 36.05131 24.08391 11733 ft 327 kts 153°
2026-05-08 12:32 36.03174 24.09774 11341 ft 320 kts 153°
2026-05-08 12:32 36.01259 24.11124 10971 ft 314 kts 153°
2026-05-08 12:33 35.99377 24.12450 10604 ft 309 kts 153°
2026-05-08 12:33 35.97510 24.13764 10263 ft 308 kts 152°
2026-05-08 12:33 35.95647 24.15075 9915 ft 307 kts 152°
2026-05-08 12:33 35.93793 24.16379 9577 ft 307 kts 151°
2026-05-08 12:34 35.91941 24.17681 9221 ft 306 kts 151°
2026-05-08 12:34 35.90093 24.18981 8871 ft 305 kts 150°
2026-05-08 12:34 35.88248 24.20277 8522 ft 305 kts 150°
2026-05-08 12:34 35.86403 24.21572 8171 ft 304 kts 150°
2026-05-08 12:35 35.84569 24.22859 7823 ft 303 kts 150°
2026-05-08 12:35 35.82735 24.24146 7475 ft 302 kts 150°
2026-05-08 12:35 35.80913 24.25424 7127 ft 301 kts 150°
2026-05-08 12:35 35.79097 24.26698 6785 ft 300 kts 150°
2026-05-08 12:36 35.77308 24.27951 6434 ft 299 kts 150°
2026-05-08 12:36 35.75478 24.29233 6079 ft 298 kts 150°
2026-05-08 12:36 35.73675 24.30495 5726 ft 297 kts 150°
2026-05-08 12:36 35.71881 24.31751 5387 ft 296 kts 150°
2026-05-08 12:37 35.70093 24.33000 5031 ft 295 kts 150°
2026-05-08 12:37 35.68309 24.34247 4681 ft 295 kts 150°
2026-05-08 12:37 35.66565 24.35465 4484 ft 288 kts 150°
2026-05-08 12:37 35.64846 24.36666 4298 ft 281 kts 150°
2026-05-08 12:38 35.63160 24.37843 4104 ft 277 kts 150°
2026-05-08 12:38 35.61495 24.39004 3903 ft 273 kts 150°
2026-05-08 12:38 35.59856 24.40145 3713 ft 268 kts 150°
2026-05-08 12:38 35.58208 24.41125 3557 ft 258 kts 161°
2026-05-08 12:39 35.56488 24.41572 3324 ft 249 kts 177°
2026-05-08 12:39 35.54827 24.41180 3053 ft 241 kts 208°
2026-05-08 12:39 35.53604 24.39866 2834 ft 231 kts 232°
2026-05-08 12:39 35.52667 24.38316 2584 ft 222 kts 234°
2026-05-08 12:40 35.51938 24.36696 2330 ft 214 kts 255°
2026-05-08 12:40 35.51616 24.34965 2158 ft 204 kts 257°
2026-05-08 12:40 35.51297 24.33311 1989 ft 194 kts 257°
2026-05-08 12:40 35.50990 24.31759 1807 ft 180 kts 257°
2026-05-08 12:41 35.50797 24.30794 1712 ft 170 kts 257°
2026-05-08 12:41 35.50518 24.29406 1634 ft 169 kts 257°
2026-05-08 12:41 35.50258 24.28002 1653 ft 165 kts 259°
2026-05-08 12:41 35.50052 24.26594 1544 ft 172 kts 261°
2026-05-08 12:42 35.50019 24.25145 1503 ft 171 kts 276°
2026-05-08 12:42 35.50250 24.23702 1377 ft 175 kts 287°
2026-05-08 12:42 35.50714 24.22356 1323 ft 165 kts 297°
2026-05-08 12:42 35.51193 24.21119 1106 ft 155 kts 292°
2026-05-08 12:43 35.51557 24.19934 1014 ft 147 kts 290°
2026-05-08 12:43 35.51933 24.18784 839 ft 145 kts 292°
2026-05-08 12:43 35.52309 24.17629 668 ft 147 kts 291°
2026-05-08 12:43 35.52685 24.16465 515 ft 144 kts 292°
2026-05-08 12:44 35.53025 24.15426 488 ft 113 kts 291°
2026-05-08 12:44 35.53259 24.14703 492 ft 70 kts 291°
2026-05-08 12:44 35.53358 24.14397 486 ft 19 kts 292°
2026-05-08 12:44 35.53426 24.14265 497 ft 19 kts 348°
2026-05-08 12:45 35.53514 24.14302 493 ft 1 kts 21°
2026-05-08 12:45 35.53523 24.14306 497 ft 1 kts 21°
2026-05-08 12:45 35.53532 24.14310 497 ft 2 kts 21°
2026-05-08 12:45 35.53557 24.14322 494 ft 6 kts 21°
2026-05-08 12:46 35.53611 24.14346 494 ft 10 kts 20°
2026-05-08 12:46 35.53680 24.14350 489 ft 11 kts 314°
2026-05-08 12:46 35.53710 24.14268 497 ft 10 kts 292°
2026-05-08 12:46 35.53736 24.14187 490 ft 10 kts 291°
2026-05-08 12:47 35.53762 24.14108 500 ft 7 kts 291°
2026-05-08 12:47 35.53765 24.14097 495 ft 1 kts 291°
2026-05-08 12:47 35.53768 24.14089 497 ft 1 kts 291°
2026-05-08 12:47 35.53770 24.14081 499 ft 1 kts 291°
2026-05-08 12:48 35.53773 24.14074 490 ft 1 kts 291°
2026-05-08 12:48 35.53777 24.14062 497 ft 4 kts 291°
2026-05-08 12:48 35.53811 24.14034 489 ft 9 kts
2026-05-08 12:48 35.53856 24.14053 490 ft 4 kts 20°
2026-05-08 12:49 35.53869 24.14059 492 ft 0 kts 21°